(779) Nina
ephemeris date magn radius delta ra dec elong phase
Today31 Aug 202511.12.101 AU1.259 AU00h19m+28°20'135.4°19.7°
Opposition3 Oct 202510.72.144 AU1.202 AU23h52m+28°22'153.4°12.1°
(779) Nina - 2025-08-31
astro.vanbuitenen.nl


 
-1 year
-1 month
-1 day
Now
+1 day
+1 month
+1 year

The interactive orbit chart above shows the body's path through the solar system and its position at the given date. Green and blue lines are shown perpendicular to the ecliptic plane: Green if the path is above the ecliptic plane, blue if it is below. (Left-click and drag to rotate the view; Right-click and drag to move the view; Use scroll wheel to zoom in our out.)

The orbital elements of Nina are:

            e (Eccentricity)                : 0.2264168
            a (Semimajor axis)              : 2.6649703
            i (Inclination)                 : 14.57380
            Ω (Longitude of ascending node) : 283.69829
            ω (Argument of perihelion)      : 49.09759
            M (Mean anomaly)                : 349.40469
            Epoch                           : 2025 May 05

            L (Longitude of perihelion)     : 331.86653
            B (Latitude of perihelion)      : 10.96364
            P (Orbital period in years)     : 4.35            
        

The light curve chart below shows the estimated development of the minor planet's magnitude.


The all-sky chart below shows the path of the minor planet over the same period as the light curve. The current position is marked yellow.





The following chart shows the path of the minor planet in the next few days. The field of view is optimized for (~10x50) binoculars and finderscopes. A more printer-friendly version of the same chart can be found below.




Ephemerides:
Date       Time       RA (2000)    DEC (2000)    delta   radius  elong  phase   PA    magn
2025-08-31 00:00 UT   00 19 32.0   +28 20 02     1.259    2.101  135.4   19.7   218   11.1 
2025-08-31 07:01 UT   00 19 22.4   +28 21 56     1.257    2.101  135.6   19.6   217   11.1 
2025-09-01 00:00 UT   00 18 58.5   +28 26 26     1.254    2.102  136.2   19.4   217   11.0 
2025-09-02 00:00 UT   00 18 23.4   +28 32 30     1.250    2.103  136.9   19.1   215   11.0 
2025-09-03 00:00 UT   00 17 46.6   +28 38 12     1.245    2.104  137.7   18.8   214   11.0 
2025-09-04 00:00 UT   00 17 08.4   +28 43 31     1.241    2.105  138.5   18.5   213   11.0 
2025-09-05 00:00 UT   00 16 28.6   +28 48 28     1.237    2.106  139.2   18.2   212   11.0 
2025-09-06 00:00 UT   00 15 47.4   +28 53 03     1.233    2.107  140.0   17.9   211   11.0 
2025-09-07 00:00 UT   00 15 04.8   +28 57 14     1.230    2.108  140.7   17.6   209   11.0 
2025-09-08 00:00 UT   00 14 20.9   +29 01 02     1.226    2.110  141.5   17.3   208   10.9 
2025-09-09 00:00 UT   00 13 35.7   +29 04 27     1.223    2.111  142.2   17.0   207   10.9 
2025-09-10 00:00 UT   00 12 49.3   +29 07 28     1.220    2.112  142.9   16.7   205   10.9 
2025-09-11 00:00 UT   00 12 01.8   +29 10 05     1.217    2.113  143.6   16.4   204   10.9 
2025-09-12 00:00 UT   00 11 13.1   +29 12 17     1.214    2.114  144.3   16.1   202   10.9 
2025-09-13 00:00 UT   00 10 23.5   +29 14 05     1.211    2.116  145.0   15.8   201   10.9 
2025-09-14 00:00 UT   00 09 32.9   +29 15 28     1.209    2.117  145.7   15.5   199   10.9 
2025-09-15 00:00 UT   00 08 41.5   +29 16 27     1.206    2.118  146.3   15.3   197   10.8 
2025-09-16 00:00 UT   00 07 49.3   +29 17 00     1.204    2.119  147.0   15.0   195   10.8 
2025-09-17 00:00 UT   00 06 56.3   +29 17 09     1.203    2.121  147.6   14.7   194   10.8 
2025-09-18 00:00 UT   00 06 02.8   +29 16 53     1.201    2.122  148.2   14.5   192   10.8 
2025-09-19 00:00 UT   00 05 08.8   +29 16 12     1.199    2.123  148.8   14.2   190   10.8 
2025-09-20 00:00 UT   00 04 14.4   +29 15 07     1.198    2.125  149.3   14.0   188   10.8 
2025-09-21 00:00 UT   00 03 19.6   +29 13 36     1.197    2.126  149.8   13.7   185   10.8 
2025-09-22 00:00 UT   00 02 24.6   +29 11 42     1.196    2.127  150.3   13.5   183   10.8 
2025-09-23 00:00 UT   00 01 29.5   +29 09 23     1.196    2.129  150.8   13.3   181   10.8 
2025-09-24 00:00 UT   00 00 34.3   +29 06 41     1.195    2.130  151.2   13.1   179   10.8 
2025-09-25 00:00 UT   23 59 39.3   +29 03 35     1.195    2.132  151.6   12.9   176   10.7 
2025-09-26 00:00 UT   23 58 44.3   +29 00 06     1.195    2.133  152.0   12.8   174   10.7 
2025-09-27 00:00 UT   23 57 49.7   +28 56 15     1.195    2.134  152.3   12.6   171   10.7 
2025-09-28 00:00 UT   23 56 55.4   +28 52 01     1.196    2.136  152.6   12.5   169   10.7 
2025-09-29 00:00 UT   23 56 01.6   +28 47 26     1.196    2.137  152.8   12.4   166   10.7 
2025-09-30 00:00 UT   23 55 08.3   +28 42 30     1.197    2.139  153.0   12.3   164   10.7 


    Terminology:
            
    delta:  distance between minor planet and earth in AU
    radius: distance between minor planet and sun in AU
    magn:   magnitude (brightness) estimate    
    ra:     right ascension in hours (24h = 360deg)
    dec:    declination in degrees
    elong:  elongation in degrees (angle sun-earth-minor planet)    
    phase:  phase angle in degrees (angle sun-minor planet-earth)        
    AU:     Astronomical Unit (mean distance between earth and sun: 149597870.7 km
    

Orbital elements provided by the MPC (Minor Planet Center).
Calculations by a modified version of AAPlus, a C# implementation of the AA+ project by PJ Naughter from the algorithms presented in the book "Astronomical Algorithms" by Jean Meeus.
NGC2000 dso catalog and star labels from VizieR as provided by the Strasbourg astronomical Data Center.
Tycho2 catalog from the ESO archive.